De Queen, AR

5:12 AM CST on February 27, 2020 (GMT -0600)
Helms Sevier County

Weather History for KDEQ - October, 2019

Change the Weather History Date:

Friday, October 25, 2019

  Actual Average Record
Temperature  
Mean Temperature 54 °F 61 °F  
Max Temperature 55 °F 74 °F 88 °F (1940)
Min Temperature 53 °F 48 °F 28 °F (1980)
Degree Days  
Heating Degree Days 10 6  
Month to date heating degree days 105 85  
Since 1 July heating degree days 105 94  
Cooling Degree Days 0 2  
Month to date cooling degree days 96 64  
Year to date cooling degree days 2313 1929  
Growing Degree Days 4 (Base 50)    
Moisture  
Dew Point 51 °F    
Average Humidity 88    
Maximum Humidity 93    
Minimum Humidity 80    
Precipitation  
Precipitation 0.79 in 0.14 in 4.36 in (1984)
Month to date precipitation 3.53 3.73  
Year to date precipitation 45.62 38.93  
Snow  
Snow 0.00 in - - ()
Month to date snowfall 0.0  
Since 1 July snowfall 0.0  
Since 1 September snowfall 0.0  
Snow Depth 0.00 in    
Sea Level Pressure  
Sea Level Pressure 30.01 in    
Wind  
Wind Speed 6 mph ()    
Max Wind Speed 16 mph    
Max Gust Speed 22 mph    
Visibility 5.9 miles    
Events Rain    
T = Trace of Precipitation, MM = Missing Value Source: Averaged Metar Reports

Daily Weather History Graph

Daily Weather History Graph

Search for Another Location

Airport or City:

Astronomy

Oct. 25, 2019 Rise Set
Actual Time 7:30 AM CDT 6:32 PM CDT
Civil Twilight 7:05 AM CDT 6:57 PM CDT
Nautical Twilight 6:35 AM CDT 7:26 PM CDT
Astronomical Twilight 6:06 AM CDT 7:55 PM CDT
Moon 4:27 AM CDT (10/25) 5:23 PM CDT (10/25)
Length of Visible Light 11h 52m
Length of Day
11h 01m
Waning Crescent, 9% of the Moon is Illuminated
Oct 25
Waning Crescent
Oct 27
New
Nov 4
First Quarter
Nov 12
Full
Nov 19
Last Quarter

Hourly Weather History & Observations

Time (CDT) Temp. Dew Point Humidity Pressure Visibility Wind Dir Wind Speed Gust Speed Precip Events Conditions
12:53 AM 55.9 °F 51.1 °F 84% 30.10 in 10.0 mi ENE 9.2 mph - N/A Rain Light Rain
2:53 AM 55.9 °F 50.0 °F 80% 30.08 in 10.0 mi East 10.4 mph - N/A Rain Light Rain
3:53 AM 55.0 °F 50.0 °F 83% 30.06 in 9.0 mi East 8.1 mph - N/A Rain Light Rain
4:53 AM 55.0 °F 50.0 °F 83% 30.04 in 10.0 mi ENE 6.9 mph - N/A   Overcast
5:53 AM 55.0 °F 50.0 °F 83% 30.04 in 9.0 mi East 8.1 mph - N/A Rain Light Rain
6:53 AM 54.0 °F 50.0 °F 86% 30.05 in 8.0 mi ENE 6.9 mph - N/A Rain Rain
7:53 AM 54.0 °F 50.0 °F 86% 30.04 in 10.0 mi East 9.2 mph - N/A Rain Light Rain
8:44 AM 54.0 °F 51.1 °F 90% 30.09 in 7.0 mi East 5.8 mph - 0.00 in Rain Light Rain
8:53 AM 54.0 °F 51.1 °F 90% 30.09 in 6.0 mi East 6.9 mph - 0.00 in Rain Light Rain
9:00 AM 54.0 °F 51.1 °F 90% 30.09 in 7.0 mi East 5.8 mph - 0.00 in Rain Light Rain
9:21 AM 54.0 °F 51.1 °F 90% 30.04 in 4.0 mi East 16.1 mph 19.6 mph 0.01 in Rain Rain
9:40 AM 54.0 °F 51.1 °F 90% 30.06 in 4.0 mi North 10.4 mph - 0.03 in Rain Rain
9:53 AM 54.0 °F 51.1 °F 90% 30.10 in 6.0 mi Calm Calm - 0.03 in Rain Light Rain
10:53 AM 55.0 °F 51.1 °F 86% 30.08 in 10.0 mi NNE 6.9 mph - 0.00 in   Overcast
11:01 AM 55.0 °F 51.1 °F 86% 30.09 in 10.0 mi NE 5.8 mph - N/A   Overcast
11:53 AM 55.9 °F 52.0 °F 87% 30.07 in 10.0 mi NE 4.6 mph - N/A   Overcast
12:53 PM 55.9 °F 52.0 °F 87% 30.04 in 2.5 mi NNE 5.8 mph - 0.02 in Rain Heavy Rain
1:37 PM 55.0 °F 52.0 °F 89% 30.03 in 2.0 mi NE 4.6 mph - N/A Rain Heavy Rain
1:53 PM 55.0 °F 52.0 °F 89% 30.02 in 2.5 mi NNE 4.6 mph - N/A Rain Light Rain
2:07 PM 55.0 °F 52.0 °F 89% 30.01 in 2.5 mi NNE 5.8 mph - 0.00 in Rain Light Rain
2:16 PM 55.0 °F 52.0 °F 89% 30.01 in 3.0 mi NNE 4.6 mph - 0.00 in Rain Light Rain
2:48 PM 55.4 °F 51.8 °F 88% 30.00 in 2.5 mi NNE 4.6 mph - 0.00 in Rain Light Rain
2:53 PM 55.0 °F 52.0 °F 89% 29.99 in 2.5 mi North 3.5 mph - 0.00 in Rain Light Rain
3:08 PM 55.0 °F 52.0 °F 89% 30.00 in 6.0 mi NNE 5.8 mph - 0.00 in Rain Light Rain
3:43 PM 54.0 °F 51.1 °F 90% 29.99 in 10.0 mi NNE 5.8 mph - 0.00 in Rain Light Rain
3:53 PM 54.0 °F 51.1 °F 90% 29.99 in 10.0 mi NE 6.9 mph - 0.00 in Rain Light Rain
4:53 PM 54.0 °F 50.0 °F 86% 29.98 in 7.0 mi NE 4.6 mph - 0.00 in   Overcast
5:53 PM 54.0 °F 51.1 °F 90% 29.96 in 8.0 mi NNE 3.5 mph - 0.00 in   Overcast
6:53 PM 54.0 °F 51.1 °F 90% 29.95 in 6.0 mi NE 4.6 mph - 0.00 in   Overcast
7:53 PM 54.0 °F 51.1 °F 90% 29.96 in 6.0 mi North 3.5 mph - 0.00 in   Overcast
8:09 PM 54.0 °F 51.1 °F 90% 29.96 in 2.5 mi Calm Calm - 0.01 in Rain Light Rain
8:16 PM 54.0 °F 51.1 °F 90% 29.96 in 4.0 mi Calm Calm - 0.01 in Rain Light Rain
8:53 PM 54.0 °F 51.1 °F 90% 29.96 in 2.5 mi NW 3.5 mph - 0.01 in Rain Light Rain
9:28 PM 54.0 °F 51.1 °F 90% 29.96 in 2.5 mi NNW 4.6 mph - 0.00 in Rain Light Rain
9:53 PM 54.0 °F 51.1 °F 90% 29.95 in 3.0 mi NW 3.5 mph - N/A Rain Rain
10:53 PM 54.0 °F 51.1 °F 90% 29.93 in 3.0 mi NNW 4.6 mph - N/A Rain Light Rain
11:11 PM 54.0 °F 51.1 °F 90% 29.92 in 2.5 mi North 4.6 mph - N/A Rain Light Rain
11:20 PM 54.0 °F 51.1 °F 90% 29.92 in 4.0 mi Variable 4.6 mph - N/A Rain Light Rain
11:53 PM 54.0 °F 51.1 °F 90% 29.89 in 7.0 mi Variable 4.6 mph - N/A Rain Light Rain